Hourly Data Report for October 05, 2017

All times are specified in Local Standard Time (LST). Add 1 hour to adjust for Daylight Saving Time where and when it is observed.

FORT GOOD HOPE CS
NORTHWEST TERRITORIES

66°14'32.044" N
128°38'39.081" W
81.70 m
2201450
71491
ZGH

Download Data

Hourly Data (October 2017)
Hourly Data Report for October 5, 2017
Temp Definition
°C
Dew Point Temp Definition
°C
Rel Hum Definition
%
Wind Dir Definition
10's deg

Wind Spd Definition
km/h
Visibility Definition
km
Stn Press Definition
kPa
Hmdx Definition


Wind Chill Definition


Weather Definition


TIME
00:00 5.3 2.8 84 9 12   99.59     LegendNANA
01:00 5.3 2.9 85 10 10   99.49     LegendNANA
02:00 5.7 3.1 83 11 12   99.42     LegendNANA
03:00 5.5 2.9 83 10 11   99.27     LegendNANA
04:00 5.8 2.9 81 10 11   99.20     LegendNANA
05:00 5.8 2.9 81 11 12   99.10     LegendNANA
06:00 5.3 2.6 83 9 5   99.05     LegendNANA
07:00 4.2 2.5 89 36 6   99.03     LegendNANA
08:00 3.8 2.4 91 9 7   99.03     LegendNANA
09:00 2.7 1.9 95 11 10   98.96     LegendNANA
10:00 3.1 2.3 94 12 5   98.91     LegendNANA
11:00 5.3 3.5 88 16 7   98.88     LegendNANA
12:00 5.4 4.2 92 14 9   98.79     LegendNANA
13:00 7.0 5.0 87 15 5   98.72     LegendNANA
14:00 9.9 5.9 76 16 7   98.68     LegendNANA
15:00 11.9 6.2 68 30 3   98.64     LegendNANA
16:00 12.2 6.2 67 36 2   98.59     LegendNANA
17:00 12.7 5.9 63 14 6   98.54     LegendNANA
18:00 10.9 5.2 68 14 6   98.47     LegendNANA
19:00 8.5 5.0 79 9 7   98.42     LegendNANA
20:00 6.7 4.4 85 10 6   98.39     LegendNANA
21:00 5.9 4.1 88 11 6   98.33     LegendNANA
22:00 5.6 3.7 88 9 3   98.29     LegendNANA
23:00 3.9 2.7 92 11 7   98.23     LegendNANA

Notes on Data Quality.

Legend

  • E = Estimated
  • M = Missing
  • NA = Not Available
  • ‡ = Partner data that is not subject to review by the National Climate Archives
Date modified: